[TLELIST] Archives

 

[TLELIST] Current TLEs

October 17th 2025 PDT

0 HST 1 20580U 90037B 25289.10108369 .00009399 00000-0 33704-3 0 9998 2 20580 28.4692 304.4849 0001822 318.0685 41.9770 15.26938637751173 0 ISS (ZARYA) 1 25544U 98067A 25290.17015183 .00013085 00000-0 24376-3 0 9996 2 25544 51.6334 62.5333 0004260 300.9101 59.1468 15.49173581534089 0 CXO 1 25867U 99040B 25291.08347916 .00000750 00000-0 00000-0 0 9999 2 25867 51.9999 124.5500 8232718 310.6504 0.1694 0.37810018 16408 ...Continue Reading

[TLELIST] Current TLEs

October 16th 2025 PDT

0 HST 1 20580U 90037B 25289.10108375 .00009869 00000-0 35424-3 0 9998 2 20580 28.4692 304.4849 0001823 318.0665 41.9790 15.26939273751171 0 ISS (ZARYA) 1 25544U 98067A 25289.20252440 .00012084 00000-0 22595-3 0 9996 2 25544 51.6331 67.3223 0004212 296.3293 63.7263 15.49149277533936 0 CXO 1 25867U 99040B 25291.08347916 .00000750 00000-0 00000-0 0 9999 2 25867 51.9999 124.5500 8232718 310.6504 0.1694 0.37810018 16408 ...Continue Reading

[TLELIST] Current TLEs

October 15th 2025 PDT

0 HST 1 20580U 90037B 25287.46709332 .00008777 00000-0 31451-3 0 9998 2 20580 28.4696 315.5873 0001769 297.5164 62.5251 15.26910297750927 0 ISS (ZARYA) 1 25544U 98067A 25288.29939280 .00010825 00000-0 20343-3 0 9998 2 25544 51.6325 71.7910 0004132 294.0373 66.0183 15.49128438533793 0 CXO 1 25867U 99040B 25288.43817974 .00000826 00000-0 00000-0 0 9994 2 25867 51.9505 124.6447 8239156 310.6333 0.0894 0.37806235 16390 ...Continue Reading

[TLELIST] Current TLEs

October 14th 2025 PDT

0 HST 1 20580U 90037B 25286.42132441 .00010733 00000-0 38648-3 0 9994 2 20580 28.4698 322.6928 0001766 283.7513 76.2885 15.26891898750763 0 ISS (ZARYA) 1 25544U 98067A 25286.81616349 .00012055 00000-0 21953-3 0 9997 2 25544 51.6332 79.1379 0000799 266.7872 93.3025 15.49912173533567 0 CXO 1 25867U 99040B 25288.43817974 .00000826 00000-0 00000-0 0 9994 2 25867 51.9505 124.6447 8239156 310.6333 0.0894 0.37806235 16390 ...Continue Reading

[TLELIST] Current TLEs

October 13th 2025 PDT

0 HST 1 20580U 90037B 25285.44090307 .00010416 00000-0 37510-3 0 9994 2 20580 28.4700 329.3539 0001773 270.8410 89.1982 15.26871265750611 0 ISS (ZARYA) 1 25544U 98067A 25285.84899874 .00015059 00000-0 27241-3 0 9998 2 25544 51.6332 83.9290 0000804 256.3096 103.7803 15.49886569533415 0 CXO 1 25867U 99040B 25288.43817974 .00000826 00000-0 00000-0 0 9994 2 25867 51.9505 124.6447 8239156 310.6333 0.0894 0.37806235 16390 ...Continue Reading

[TLELIST] Current TLEs

October 12th 2025 PDT

0 HST 1 20580U 90037B 25284.46046855 .00008954 00000-0 32157-3 0 9990 2 20580 28.4700 336.0150 0001803 258.0069 102.0324 15.26851369750468 0 ISS (ZARYA) 1 25544U 98067A 25284.94629524 .00014189 00000-0 25739-3 0 9994 2 25544 51.6327 88.4008 0000800 248.3312 111.7592 15.49860174533276 0 CXO 1 25867U 99040B 25283.14864612 .00000910 00000-0 00000-0 0 9992 2 25867 51.8364 124.8711 8250234 310.5442 0.1878 0.37810077 16378 ...Continue Reading

[TLELIST] Current TLEs

October 11th 2025 PDT

0 HST 1 20580U 90037B 25284.26438031 .00008213 00000-0 29437-3 0 9994 2 20580 28.4700 337.3471 0001815 255.3563 104.6831 15.26846741750436 0 ISS (ZARYA) 1 25544U 98067A 25284.17253726 .00010760 00000-0 19735-3 0 9996 2 25544 51.6323 92.2337 0000813 239.6320 120.4589 15.49837675533156 0 CXO 1 25867U 99040B 25283.14864612 .00000910 00000-0 00000-0 0 9992 2 25867 51.8364 124.8711 8250234 310.5442 0.1878 0.37810077 16378 ...Continue Reading

[TLELIST] Current TLEs

October 10th 2025 PDT

0 HST 1 20580U 90037B 25283.28393201 .00008493 00000-0 30482-3 0 9996 2 20580 28.4701 344.0082 0001862 243.0254 117.0151 15.26831166750284 0 ISS (ZARYA) 1 25544U 98067A 25282.94740148 .00010951 00000-0 20092-3 0 9998 2 25544 51.6320 98.3019 0000966 226.7270 133.3638 15.49808863532960 0 CXO 1 25867U 99040B 25283.14864612 .00000910 00000-0 00000-0 0 9992 2 25867 51.8364 124.8711 8250234 310.5442 0.1878 0.37810077 16378 ...Continue Reading

[TLELIST] Current TLEs

October 9th 2025 PDT

0 HST 1 20580U 90037B 25282.30347363 .00008699 00000-0 31254-3 0 9992 2 20580 28.4701 350.6689 0001925 230.5535 129.4890 15.26813916750137 0 ISS (ZARYA) 1 25544U 98067A 25281.98017350 .00012532 00000-0 22891-3 0 9999 2 25544 51.6314 103.0937 0000833 227.8204 132.2714 15.49784909532819 0 CXO 1 25867U 99040B 25283.14864596 .00000910 00000-0 00000-0 0 9993 2 25867 51.8362 124.8724 8250177 310.5430 0.1880 0.37811187 16379 ...Continue Reading

[TLELIST] Current TLEs

October 8th 2025 PDT

0 HST 1 20580U 90037B 25281.32300460 .00010204 00000-0 36813-3 0 9991 2 20580 28.4701 357.3295 0001995 218.4879 141.5573 15.26796232749982 0 ISS (ZARYA) 1 25544U 98067A 25281.01292892 .00013434 00000-0 24501-3 0 9991 2 25544 51.6310 107.8852 0000879 217.5357 142.5570 15.49758628532664 0 CXO 1 25867U 99040B 25283.14864596 .00000910 00000-0 00000-0 0 9993 2 25867 51.8362 124.8724 8250177 310.5430 0.1880 0.37811187 16379 ...Continue Reading
  • This mailing list is a public mailing list - anyone may join or leave, at any time.
  • This mailing list is announce-only.

International Space Station (ISS) / Hubble Space Telescope (HST) / Chandra X-Ray Observatory Orbital Data via EMAIL

Privacy Policy:

Private list